Date String (YYYY-MM-DD hh:mm:ss) UTC,Instrument flags,Ambient pressure (hPa),Sample flow (lpm),Bypass flow (lpm),Sample temperature (°C),Ambient temperature (°C),ASC tube jacket temperature (°C),LED temperature (°C),Box temperature (°C),Sample RH (%),Span deviation,Mass concentration (μg/m³),Mass concentration (μg/m³),Mass concentration (μg/m³)
DateTimeUTC,F1_M11,P_M11,Q1_M11,Q2_M11,T1_M11,T2_M11,T3_M11,T4_M11,T5_M11,U1_M11,ZSPAN_M11,X0_M11,X2_M11,X1_M11
2023-05-13 12:00:00,,0835.8,5.00,0.00,23.6,22.0,00.0,32.0,25.2,27.1,0000.0,0003.18,0002.42,0002.16
2023-05-13 12:01:00,,0835.8,5.00,0.00,23.6,22.0,00.0,32.0,25.2,27.0,0000.0,0003.10,0002.36,0002.10
2023-05-13 12:02:00,,0835.8,5.01,0.00,23.6,22.0,00.0,32.0,25.2,26.9,0000.0,0002.99,0002.30,0002.05
2023-05-13 12:03:00,,0835.8,5.00,0.00,23.6,22.0,00.0,32.0,25.2,26.9,0000.0,0002.89,0002.25,0002.02
2023-05-13 12:04:00,,0835.9,5.00,0.00,23.6,22.1,00.0,32.0,25.2,26.9,0000.0,0002.74,0002.16,0001.95
2023-05-13 12:05:00,,0835.9,4.99,0.00,23.6,22.1,00.0,32.0,25.2,26.9,0000.0,0002.73,0002.14,0001.90
2023-05-13 12:06:00,,0835.9,5.00,0.00,23.6,22.0,00.0,32.0,25.2,26.8,0000.0,0002.74,0002.12,0001.84
2023-05-13 12:07:00,,0835.9,5.00,0.00,23.6,22.0,00.0,32.0,25.2,26.8,0000.0,0003.24,0002.08,0001.79
2023-05-13 12:08:00,,0835.9,5.01,0.00,23.6,22.1,00.0,32.0,25.2,26.8,0000.0,0003.90,0002.04,0001.74
2023-05-13 12:09:00,,0835.9,5.00,0.00,23.6,22.1,00.0,32.0,25.2,26.8,0000.0,0003.92,0002.03,0001.72
2023-05-13 12:10:00,,0835.9,5.00,0.00,23.6,22.1,00.0,32.0,25.2,26.8,0000.0,0003.85,0001.99,0001.69
2023-05-13 12:11:00,,0835.9,5.01,0.00,23.6,22.1,00.0,32.0,25.2,26.8,0000.0,0003.80,0001.95,0001.66
2023-05-13 12:12:00,,0835.9,5.00,0.00,23.6,22.2,00.0,32.0,25.3,26.8,0000.0,0003.80,0001.92,0001.65
2023-05-13 12:13:00,,0835.9,5.00,0.00,23.6,22.2,00.0,32.0,25.3,26.7,0000.0,0003.80,0001.92,0001.63
2023-05-13 12:14:00,,0836.0,5.00,0.00,23.7,22.2,00.0,32.0,25.3,26.7,0000.0,0003.80,0001.92,0001.62
2023-05-13 12:15:00,,0836.1,5.00,0.00,23.7,22.3,00.0,32.0,25.3,26.8,0000.0,0003.88,0001.95,0001.62
2023-05-13 12:16:00,,0836.1,5.00,0.00,23.7,22.2,00.0,32.0,25.4,26.8,0000.0,0003.91,0001.95,0001.63
2023-05-13 12:17:00,,0836.1,5.00,0.00,23.7,22.2,00.0,32.0,25.4,26.9,0000.0,0004.01,0001.98,0001.65
2023-05-13 12:18:00,,0836.2,5.00,0.00,23.7,22.3,00.0,32.0,25.4,26.9,0000.0,0003.79,0001.97,0001.65
2023-05-13 12:19:00,,0836.2,5.01,0.00,23.7,22.3,00.0,32.0,25.4,27.0,0000.0,0002.86,0001.99,0001.68
2023-05-13 12:20:00,,0836.2,5.01,0.00,23.7,22.3,00.0,32.0,25.4,27.2,0000.0,0002.98,0002.05,0001.70
2023-05-13 12:21:00,,0836.2,5.01,0.00,23.7,22.3,00.0,32.0,25.4,27.5,0000.0,0003.20,0002.13,0001.74
2023-05-13 12:22:00,,0836.2,5.00,0.00,23.7,22.3,00.0,32.0,25.4,27.2,0000.0,0003.31,0002.20,0001.78
2023-05-13 12:23:00,,0836.2,5.00,0.00,23.7,22.3,00.0,32.0,25.5,27.1,0000.0,0003.29,0002.21,0001.81
2023-05-13 12:24:00,,0836.3,5.00,0.00,23.7,22.3,00.0,32.0,25.5,27.1,0000.0,0003.33,0002.24,0001.84
2023-05-13 12:25:00,,0836.3,5.00,0.00,23.8,22.3,00.0,32.0,25.5,27.2,0000.0,0003.39,0002.28,0001.87
2023-05-13 12:26:00,,0836.3,5.00,0.00,23.8,22.3,00.0,32.1,25.5,27.3,0000.0,0003.48,0002.33,0001.89
2023-05-13 12:27:00,,0836.4,5.00,0.00,23.8,22.3,00.0,32.1,25.5,27.3,0000.0,0003.54,0002.37,0001.92
2023-05-13 12:28:00,,0836.4,5.00,0.00,23.8,22.3,00.0,32.1,25.5,27.4,0000.0,0003.49,0002.37,0001.96
2023-05-13 12:29:00,,0836.4,5.00,0.00,23.8,22.3,00.0,32.1,25.5,27.6,0000.0,0003.61,0002.43,0002.00
2023-05-13 12:30:00,,0836.4,5.00,0.00,23.8,22.3,00.0,32.1,25.4,27.8,0000.0,0005.31,0002.59,0002.10
2023-05-13 12:31:00,,0836.5,4.99,0.00,23.8,22.2,00.0,32.1,25.4,27.8,0000.0,0005.66,0002.68,0002.16
2023-05-13 12:32:00,,0836.5,5.00,0.00,23.8,22.2,00.0,32.1,25.4,27.8,0000.0,0005.68,0002.73,0002.21
2023-05-13 12:33:00,,0836.5,5.00,0.00,23.8,22.2,00.0,32.1,25.4,27.9,0000.0,0005.61,0002.73,0002.23
2023-05-13 12:34:00,,0836.5,5.00,0.00,23.8,22.2,00.0,32.1,25.4,27.8,0000.0,0005.77,0002.80,0002.27
2023-05-13 12:35:00,,0836.5,5.00,0.00,23.7,22.2,00.0,32.1,25.4,28.0,0000.0,0006.15,0002.86,0002.32
2023-05-13 12:36:00,,0836.5,5.01,0.00,23.7,22.2,00.0,32.1,25.4,28.1,0000.0,0006.88,0002.91,0002.38
2023-05-13 12:37:00,,0836.5,5.01,0.00,23.7,22.2,00.0,32.1,25.4,28.2,0000.0,0006.86,0002.91,0002.43
2023-05-13 12:38:00,,0836.4,5.01,0.00,23.7,22.2,00.0,32.1,25.4,28.4,0000.0,0007.01,0002.97,0002.48
2023-05-13 12:39:00,,0836.4,5.00,0.00,23.8,22.3,00.0,32.1,25.5,28.2,0000.0,0007.18,0003.05,0002.53
2023-05-13 12:40:00,,0836.4,4.99,0.00,23.8,22.3,00.0,32.1,25.5,28.2,0000.0,0007.22,0003.11,0002.58
2023-05-13 12:41:00,,0836.4,5.00,0.00,23.8,22.3,00.0,32.1,25.5,28.1,0000.0,0006.13,0003.09,0002.59
2023-05-13 12:42:00,,0836.4,4.99,0.00,23.8,22.3,00.0,32.1,25.5,28.1,0000.0,0005.28,0003.06,0002.60
2023-05-13 12:43:00,,0836.5,4.99,0.00,23.8,22.4,00.0,32.1,25.5,28.3,0000.0,0005.15,0003.04,0002.60
2023-05-13 12:44:00,,0836.5,5.00,0.00,23.8,22.4,00.0,32.1,25.5,28.4,0000.0,0005.23,0003.08,0002.64
2023-05-13 12:45:00,,0836.5,5.00,0.00,23.8,22.4,00.0,32.1,25.5,28.3,0000.0,0005.19,0003.07,0002.65
2023-05-13 12:46:00,,0836.5,5.01,0.00,23.8,22.4,00.0,32.1,25.5,28.2,0000.0,0004.93,0003.10,0002.67
2023-05-13 12:47:00,,0836.5,5.01,0.00,23.8,22.4,00.0,32.1,25.5,28.3,0000.0,0004.44,0003.13,0002.68
2023-05-13 12:48:00,,0836.5,5.00,0.00,23.8,22.3,00.0,32.1,25.5,28.3,0000.0,0004.35,0003.15,0002.71
2023-05-13 12:49:00,,0836.5,5.00,0.00,23.8,22.3,00.0,32.1,25.5,28.4,0000.0,0004.35,0003.16,0002.73
2023-05-13 12:50:00,,0836.5,5.00,0.00,23.8,22.3,00.0,32.1,25.5,28.3,0000.0,0004.19,0003.14,0002.73
2023-05-13 12:51:00,,0836.5,5.00,0.00,23.8,22.3,00.0,32.1,25.5,28.4,0000.0,0004.21,0003.11,0002.72
2023-05-13 12:52:00,,0836.5,5.00,0.00,23.8,22.3,00.0,32.1,25.5,28.6,0000.0,0004.24,0003.11,0002.71
2023-05-13 12:53:00,,0836.5,5.00,0.00,23.8,22.3,00.0,32.1,25.5,28.8,0000.0,0004.26,0003.09,0002.68
2023-05-13 12:54:00,,0836.5,5.00,0.00,23.8,22.3,00.0,32.1,25.5,29.1,0000.0,0004.22,0003.06,0002.64
2023-05-13 12:55:00,,0836.5,5.00,0.00,23.8,22.3,00.0,32.2,25.5,29.1,0000.0,0004.23,0003.07,0002.62
2023-05-13 12:56:00,,0836.5,5.01,0.00,23.8,22.3,00.0,32.2,25.5,28.9,0000.0,0004.26,0003.06,0002.61
2023-05-13 12:57:00,,0836.5,5.02,0.00,23.8,22.3,00.0,32.2,25.5,28.8,0000.0,0004.22,0003.01,0002.59
2023-05-13 12:58:00,,0836.5,4.99,0.00,23.8,22.3,00.0,32.2,25.5,29.1,0000.0,0004.06,0002.94,0002.56
2023-05-13 12:59:00,,0836.5,4.99,0.00,23.8,22.3,00.0,32.2,25.5,29.0,0000.0,0003.95,0002.87,0002.52
